CO31 weather

Rose Medical Center Heliport
Denver, Colorado, United States

Public forecast

Using degrees Fahrenheit for public forecast. Weather courtesy of forecast.io.

METAR (pilot weather report)

Closest report is Buckley Air Force Base, 8.9 nm (16.5 km) ESE. Retrieved 2019/04/21 04:58 UTC (57 minutes ago):

KBKF 210458Z 24009KT 10SM FEW120 BKN160 BKN200 15/M01 A2980 RMK AO2A SLP020 T01521010

TAF (pilot weather forecast)

Closest forecast is Buckley Air Force Base, 8.9 nm (16.5 km) ESE. Retrieved 2019/04/21 01:07 UTC (5 hours ago):

TAF KBKF 210102Z 2101/2207 15025G35KT 9999 VCSH FEW080 BKN100 QNH2994INS BECMG 2102/2103 28009KT 8000 -SHRA BKN080 QNH2931INS BECMG 2110/2111 29009KT 9999 NSW FEW100 QNH2988INS BECMG 2121/2122 26009KT 9999 VCSH BKN080 QNH2993INS BECMG 2205/2206 34012G18KT 8000 -SHRA BR BKN005 OVC020 QNH3000INS TX26/2121Z TN05/2112Z